[[{"header":{"parameterUnit":"m.s-1","parameterCategory":2,"la1":30.2991,"la2":30.254,"lo1":-89.0895,"lo2":-89.0444,"dy":0.0017,"dx":0.0017,"nx":28,"ny":28,"refTime":"2025-07-25T09:00:00:Z","depth":"0","parameterNumber":2,"parameterNumberName":"U-component_of_CURRENTS"},"data":[0,0,0,0,0,0,0,0,0,0,0,0,0,0,0,0,0,0,0,0,0,0,0,0,0,0,0,0,0,0,0,0,0,0,0,0,0,0,0,0,0,0,0,0,0,0,0,0,0,0,0,0,0,0,0,0,0,0,0.2457,0.2456,0,0.2384,0.2383,0.2381,0.2341,0.2341,0.2341,0.2341,0.2149,0.2144,0.2139,0,0,0,0,0,0,0,0,0,0,0,0,0,0.2537,0.2535,0.2457,0.2456,0.2456,0.2384,0.2383,0.2381,0.2341,0.2341,0.2341,0.2342,0.2151,0.2145,0.2138,0,0,0,0,0,0,0,0,0,0,0,0,0,0.2483,0.2535,0.2457,0.243,0.2427,0.2384,0.2382,0.2381,0.2341,0.2341,0.2341,0.2342,0.2153,0.2145,0.2137,0.208,0,0,0.2113,0.2109,0,0,0,0,0,0,0,0,0.2486,0.2479,0.2434,0.2432,0.2428,0.2375,0.2341,0.2276,0.2341,0.2369,0.2341,0.2342,0.2216,0.2203,0.2184,0.2071,0.2063,0.2112,0.2107,0.2104,0.2102,0,0,0,0,0,0,0,0.249,0.2482,0.2424,0.2434,0.243,0.2413,0.2406,0.2328,0.2286,0.2367,0.2365,0.2363,0.2213,0.2192,0.2179,0.206,0.2112,0.2105,0.21,0.2097,0.2016,0.2018,0,0,0,0,0,0,0.2507,0.2486,0.2426,0.2422,0.2463,0.2412,0.2403,0.2389,0.2289,0.2277,0.2362,0.2361,0.2206,0.2189,0.2172,0.2181,0.2104,0.2096,0.2092,0.2013,0.2016,0.2019,0,0,0,0,0,0,0.2509,0.2502,0.2429,0.2456,0.2446,0.2411,0.2394,0.2387,0.2377,0.2288,0.2273,0.2362,0.2205,0.2183,0.2134,0.217,0.2093,0.2085,0.201,0.2014,0.2018,0.2146,0,0,0,0,0,0,0.2512,0.2503,0.2508,0.2457,0.2446,0.242,0.2394,0.2386,0.2376,0.2374,0.2282,0.2264,0.2204,0.2147,0.2127,0.2158,0.2079,0.2007,0.2012,0.2017,0.2138,0.2153,0.2167,0,0,0,0,0,0.2514,0.2514,0.2509,0.2503,0.245,0.2421,0.2413,0.2387,0.2377,0.2377,0.2329,0.2267,0.2166,0.2142,0.2117,0.2147,0.2004,0.201,0.2016,0.2132,0.215,0.2166,0,0,0,0,0,0,0.2551,0.2509,0.2502,0.2489,0.2469,0.2416,0.2414,0.2396,0.2357,0.2356,0.2273,0.2252,0.2238,0.2174,0.215,0.2147,0.2085,0.2087,0.2182,0.2198,0.2212,0.2253,0.2073,0,0,0,0,0,0.2564,0.2558,0.2515,0.2514,0.2499,0.246,0.2448,0.2432,0.239,0.2374,0.2316,0.2268,0.2241,0.2205,0.2167,0.2129,0.2144,0.2146,0.216,0.2172,0.2194,0.2282,0.2307,0.2039,0.2039,0.2039,0,0,0.2584,0.2561,0.256,0.2524,0.2499,0.2492,0.2452,0.244,0.2452,0.2355,0.2347,0.231,0.2249,0.2239,0.2226,0.2183,0.2256,0.218,0.219,0.2206,0.2291,0.2318,0.2341,0.2043,0.2042,0.2042,0,0,0.2616,0.2592,0.2594,0.2573,0.2548,0.2528,0.253,0.2486,0.2483,0.2461,0.243,0.2427,0.2335,0.2333,0.2311,0.2377,0.2342,0.2359,0.2438,0.2524,0.2547,0.2567,0.2619,0.2643,0.235,0.2351,0.2351,0,0.2642,0.2631,0.2595,0.2586,0.2577,0.2549,0.2549,0.2545,0.2504,0.2508,0.2477,0.2446,0.2394,0.242,0.2456,0.2411,0.2441,0.2371,0.2544,0.2565,0.2584,0.2631,0.2656,0.2357,0.2357,0.2356,0.2355,0,0.2669,0.2659,0.2655,0.264,0.2632,0.2625,0.2611,0.2618,0.2607,0.2602,0.2626,0.2583,0.2566,0.2564,0.2518,0.2627,0.26,0.2566,0.2503,0.2619,0.2661,0.2685,0.2367,0.2365,0.2363,0.2361,0,0,0.2694,0.2681,0.2674,0.2672,0.2653,0.2644,0.2677,0.2689,0.2717,0.271,0.2752,0.2746,0.2738,0.272,0.2688,0.2757,0.2915,0.2722,0.2723,0.2776,0.3096,0.2935,0.2944,0.2916,0.2921,0.2925,0.3071,0,0.2717,0.2727,0.2711,0.2722,0.2714,0.2702,0.2734,0.2753,0.2761,0.2799,0.2813,0.2833,0.2794,0.2794,0.287,0.2901,0.2984,0.2878,0.2972,0.2975,0.2821,0.2969,0.2744,0.2843,0.3094,0.3098,0.3101,0,0.271,0.2727,0.2745,0.2751,0.2746,0.276,0.2794,0.2819,0.2877,0.2886,0.293,0.2933,0.3027,0.298,0.3133,0.3067,0.3109,0.3136,0.3142,0.2965,0.2859,0.2768,0.2876,0.2744,0.3137,0.3134,0.3131,0,0.271,0.2723,0.2748,0.2745,0.2768,0.2782,0.2801,0.2844,0.2877,0.2951,0.2985,0.3076,0.3125,0.3218,0.3259,0.3219,0.3428,0.3367,0.3269,0.3257,0.3069,0.303,0.306,0.3518,0.3518,0.3518,0.3517,0,0.2695,0.2701,0.2751,0.2753,0.2798,0.2797,0.2844,0.2873,0.2936,0.2992,0.3036,0.31,0.3198,0.3297,0.3334,0.3372,0.3493,0.3326,0.3305,0.3102,0.3066,0.2939,0.2914,0.3523,0.3522,0.3521,0.352,0,0.2654,0.2687,0.2715,0.2769,0.2786,0.2813,0.2862,0.2901,0.2955,0.3036,0.3067,0.317,0.3272,0.3345,0.3489,0.3444,0.3372,0.3487,0.3219,0.3161,0.2871,0.2861,0.2791,0.2728,0.3397,0.3394,0.3392,0,0.2629,0.2643,0.2726,0.2764,0.2783,0.2828,0.2861,0.2908,0.2944,0.3066,0.3108,0.3226,0.3274,0.3396,0.3347,0.3374,0.3299,0.317,0.3041,0.2858,0.2836,0.2724,0.2671,0.2857,0.285,0.2845,0.2841,0,0.2592,0.2631,0.2676,0.277,0.2813,0.2849,0.289,0.292,0.2983,0.3036,0.3117,0.3167,0.3222,0.3119,0.3111,0.309,0.2938,0.3054,0.2964,0.2508,0.2297,0.222,0.2744,0.2793,0.2798,0.2801,0.2804,0.2806,0.2572,0.2612,0.2696,0.2773,0.2823,0.2847,0.2832,0.2871,0.2902,0.2913,0.3039,0.3008,0.2906,0.2824,0.2798,0.25,0.261,0.2356,0.2394,0.2323,0.215,0.2541,0.2486,0.2489,0.2492,0.2494,0.2496,0,0.2549,0.2613,0.2693,0.2765,0.2788,0.2821,0.2832,0.2777,0.2751,0.2773,0.2782,0.2588,0.2419,0.2304,0.2007,0.1864,0.1784,0.179,0.1612,0.1626,0.2053,0.191,0.1604,0.1604,0.1604,0.1605,0.1605,0.1605,0.2546,0.2615,0.267,0.2712,0.2737,0.2677,0.2648,0.2569,0.2531,0.2356,0.2199,0.216,0.1982,0.1672,0.1407,0.1367,0.1282,0.1141,0.1267,0.1562,0.1617,0.167,0.1527,0.1147,0.1146,0.0683,0.068,0.0677]},{"header":{"parameterUnit":"m.s-1","parameterCategory":2,"la1":30.2991,"la2":30.254,"lo1":-89.0895,"lo2":-89.0444,"dy":0.0017,"dx":0.0017,"nx":28,"ny":28,"refTime":"2025-07-25T09:00:00:Z","depth":"0","parameterNumber":3,"parameterNumberName":"V-component_of_CURRENTS"},"data":[0,0,0,0,0,0,0,0,0,0,0,0,0,0,0,0,0,0,0,0,0,0,0,0,0,0,0,0,0,0,0,0,0,0,0,0,0,0,0,0,0,0,0,0,0,0,0,0,0,0,0,0,0,0,0,0,0,0,0.0295,0.0296,0,0.0299,0.0299,0.0299,0.0303,0.0303,0.0303,0.0303,0.0275,0.0274,0.0273,0,0,0,0,0,0,0,0,0,0,0,0,0,0.0261,0.0262,0.0295,0.0296,0.0296,0.0299,0.0299,0.0298,0.0303,0.0303,0.0303,0.0304,0.0275,0.0274,0.0273,0,0,0,0,0,0,0,0,0,0,0,0,0,0.027,0.0262,0.0295,0.0299,0.03,0.0299,0.0299,0.0298,0.0303,0.0303,0.0303,0.0304,0.0275,0.0274,0.0273,0.0257,0,0,0.0268,0.0267,0,0,0,0,0,0,0,0,0.0269,0.0271,0.0299,0.0299,0.03,0.0302,0.0276,0.0284,0.0303,0.03,0.0303,0.0304,0.0282,0.028,0.0278,0.0256,0.0254,0.0268,0.0267,0.0266,0.0266,0,0,0,0,0,0,0,0.0269,0.0271,0.0295,0.0299,0.03,0.029,0.0292,0.0277,0.0287,0.03,0.0301,0.0304,0.0282,0.0279,0.0277,0.0254,0.0268,0.0267,0.0266,0.0265,0.0231,0.0231,0,0,0,0,0,0,0.0273,0.027,0.0295,0.0295,0.0287,0.0291,0.0293,0.03,0.0288,0.0287,0.0304,0.0304,0.0282,0.0279,0.0276,0.0283,0.0266,0.0265,0.0264,0.0231,0.0231,0.0231,0,0,0,0,0,0,0.0272,0.0275,0.0295,0.0284,0.0286,0.0292,0.0299,0.03,0.0301,0.0291,0.029,0.0305,0.0282,0.0278,0.0267,0.0281,0.0264,0.0263,0.0231,0.0231,0.0231,0.0279,0,0,0,0,0,0,0.0271,0.0275,0.0277,0.0284,0.0287,0.0302,0.0299,0.03,0.0303,0.0304,0.0292,0.029,0.0282,0.0269,0.0265,0.0278,0.0262,0.0231,0.0231,0.0231,0.0278,0.0281,0.0284,0,0,0,0,0,0.027,0.0278,0.0278,0.028,0.0291,0.0302,0.0303,0.0306,0.0303,0.0307,0.0296,0.029,0.0266,0.0268,0.0263,0.0277,0.0231,0.0231,0.0231,0.0277,0.028,0.0284,0,0,0,0,0,0,0.0265,0.0279,0.0279,0.0291,0.0298,0.0304,0.0307,0.0307,0.0301,0.0301,0.0287,0.0284,0.028,0.0265,0.0267,0.0265,0.0248,0.0248,0.0284,0.0288,0.0291,0.0328,0.0261,0,0,0,0,0,0.0264,0.0274,0.0284,0.0293,0.0297,0.03,0.0303,0.0308,0.0306,0.0305,0.0295,0.0282,0.0274,0.0271,0.0259,0.0255,0.0275,0.026,0.0263,0.0266,0.0292,0.0341,0.0353,0.0231,0.0231,0.0231,0,0,0.0266,0.0274,0.028,0.0293,0.0297,0.0313,0.0303,0.0314,0.0328,0.0301,0.0307,0.029,0.0274,0.0274,0.0271,0.0266,0.0304,0.0266,0.0268,0.0294,0.0343,0.0355,0.0366,0.0231,0.0231,0.0231,0,0,0.0279,0.0281,0.0296,0.0304,0.0315,0.032,0.0325,0.0331,0.0334,0.0334,0.0321,0.032,0.0295,0.0302,0.0298,0.0308,0.0316,0.0291,0.0342,0.0389,0.0401,0.0412,0.0434,0.0446,0.0296,0.0296,0.0296,0,0.0279,0.0304,0.0301,0.0317,0.0329,0.0326,0.0348,0.0351,0.0352,0.0363,0.0342,0.034,0.0319,0.0345,0.0345,0.032,0.0339,0.0332,0.0398,0.0408,0.0418,0.0439,0.0452,0.0299,0.0298,0.0298,0.0298,0,0.0311,0.0327,0.0336,0.0359,0.0366,0.0386,0.0392,0.04,0.0397,0.0405,0.0422,0.0401,0.041,0.0393,0.037,0.0425,0.041,0.0396,0.0398,0.0434,0.0452,0.0464,0.0302,0.0301,0.03,0.03,0,0,0.0326,0.0354,0.036,0.0374,0.0393,0.0404,0.0427,0.0455,0.0486,0.0478,0.0525,0.0502,0.0503,0.0499,0.0476,0.0509,0.0574,0.0484,0.0486,0.0522,0.0669,0.0623,0.0632,0.0576,0.0579,0.0581,0.0647,0,0.0356,0.0398,0.0403,0.044,0.0462,0.0465,0.049,0.051,0.0525,0.0566,0.0566,0.0592,0.054,0.0551,0.0578,0.0587,0.0613,0.0557,0.0615,0.0617,0.0585,0.0647,0.064,0.0697,0.066,0.0662,0.0663,0,0.0391,0.0416,0.0459,0.0489,0.0499,0.0516,0.0562,0.0585,0.0636,0.065,0.0687,0.0693,0.0743,0.0688,0.0748,0.0717,0.07,0.0696,0.0698,0.0656,0.0595,0.0656,0.0721,0.0673,0.0683,0.0681,0.068,0,0.0412,0.0452,0.0489,0.0501,0.0535,0.0551,0.0569,0.0612,0.0648,0.0717,0.0767,0.0812,0.0864,0.0864,0.0848,0.0811,0.0913,0.0859,0.0798,0.0793,0.0801,0.0792,0.0847,0.0902,0.0902,0.0901,0.0901,0,0.0443,0.0469,0.05,0.052,0.0562,0.0573,0.0625,0.0652,0.0718,0.0799,0.0817,0.091,0.0918,0.0967,0.0914,0.0912,0.0968,0.0835,0.0824,0.0811,0.0803,0.0769,0.0732,0.0904,0.0903,0.0903,0.0902,0,0.0452,0.0478,0.0518,0.0559,0.057,0.0596,0.0645,0.0692,0.0754,0.087,0.0905,0.1019,0.1101,0.1075,0.1104,0.1016,0.0969,0.0965,0.0934,0.0917,0.0784,0.0748,0.0816,0.0797,0.0919,0.0918,0.0918,0,0.0463,0.0488,0.0538,0.056,0.0574,0.0612,0.0647,0.0701,0.0768,0.095,0.1024,0.1148,0.126,0.127,0.116,0.1075,0.1001,0.0964,0.0883,0.0806,0.0759,0.0745,0.0723,0.0906,0.0906,0.0906,0.0905,0,0.0481,0.0499,0.0529,0.0576,0.061,0.0662,0.0722,0.0788,0.0899,0.1027,0.1229,0.1341,0.1372,0.1337,0.1197,0.1109,0.0932,0.0949,0.0907,0.0795,0.0754,0.0719,0.0809,0.0902,0.0902,0.0902,0.0903,0.0903,0.049,0.0513,0.0554,0.0592,0.0642,0.0728,0.0796,0.0904,0.1055,0.1279,0.1369,0.156,0.1453,0.1294,0.1173,0.0912,0.0925,0.0813,0.0788,0.0791,0.0743,0.0805,0.0851,0.0852,0.0852,0.0852,0.0852,0,0.0504,0.0529,0.0568,0.0635,0.0701,0.0726,0.0863,0.0968,0.1182,0.1379,0.1562,0.1598,0.1476,0.1279,0.0939,0.0783,0.0731,0.0699,0.0695,0.0687,0.0785,0.0751,0.0735,0.0735,0.0735,0.0735,0.0735,0.0735,0.0514,0.0547,0.0566,0.0673,0.0732,0.0858,0.0955,0.1129,0.1293,0.1518,0.162,0.1688,0.1522,0.1058,0.0763,0.0687,0.061,0.0579,0.0551,0.0613,0.0622,0.063,0.0592,0.0542,0.0542,0.0476,0.0475,0.0474]}],[{"header":{"parameterUnit":"m.s-1","parameterCategory":2,"la1":30.2991,"la2":30.254,"lo1":-89.0895,"lo2":-89.0444,"dy":0.0017,"dx":0.0017,"nx":28,"ny":28,"refTime":"2025-07-25T09:00:00:Z","depth":"2","parameterNumber":2,"parameterNumberName":"U-component_of_CURRENTS"},"data":[0,0,0,0,0,0,0,0,0,0,0,0,0,0,0,0,0,0,0,0,0,0,0,0,0,0,0,0,0,0,0,0,0,0,0,0,0,0,0,0,0,0,0,0,0,0,0,0,0,0,0,0,0,0,0,0,0,0,0.1797,0.1797,0,0.1763,0.1762,0.1762,0.1748,0.1748,0.1749,0.1749,0.1722,0.1721,0.172,0,0,0,0,0,0,0,0,0,0,0,0,0,0.1849,0.1848,0.1797,0.1797,0.1797,0.1763,0.1762,0.1761,0.1748,0.1748,0.1749,0.1749,0.1723,0.1721,0.172,0,0,0,0,0,0,0,0,0,0,0,0,0,0.1818,0.1847,0.1797,0.1789,0.1789,0.1763,0.1762,0.1761,0.1748,0.1748,0.1749,0.175,0.1723,0.1721,0.172,0.1695,0,0,0.1714,0.1714,0,0,0,0,0,0,0,0,0.1819,0.1815,0.179,0.179,0.1789,0.1764,0.1771,0.1741,0.1747,0.1758,0.1749,0.175,0.1739,0.1736,0.1722,0.1693,0.1692,0.1714,0.1713,0.1712,0.1712,0,0,0,0,0,0,0,0.1822,0.1817,0.1779,0.179,0.179,0.1788,0.1783,0.1765,0.1742,0.1758,0.1758,0.1761,0.1739,0.1724,0.1721,0.1692,0.1714,0.1713,0.1712,0.1711,0.1742,0.1744,0,0,0,0,0,0,0.1834,0.1818,0.178,0.1779,0.1811,0.1786,0.1782,0.1768,0.1742,0.174,0.176,0.176,0.1726,0.1723,0.172,0.1771,0.1712,0.1711,0.171,0.1741,0.1743,0.1745,0,0,0,0,0,0,0.1834,0.183,0.1782,0.1803,0.1797,0.1785,0.177,0.1767,0.1778,0.1745,0.1742,0.1778,0.1727,0.1723,0.1736,0.1767,0.171,0.1708,0.1738,0.1741,0.1744,0.182,0,0,0,0,0,0,0.1836,0.183,0.1832,0.1803,0.1796,0.1788,0.1769,0.1766,0.178,0.178,0.1759,0.1755,0.1727,0.1739,0.1734,0.1764,0.1707,0.1736,0.174,0.1743,0.1815,0.1825,0.1834,0,0,0,0,0,0.1837,0.1839,0.1831,0.1828,0.1796,0.1789,0.1786,0.1777,0.1781,0.1789,0.1784,0.1758,0.1758,0.1739,0.1733,0.1763,0.1734,0.1739,0.1743,0.1811,0.1823,0.1834,0,0,0,0,0,0,0.1869,0.1837,0.1828,0.1822,0.1817,0.1789,0.1801,0.1795,0.1794,0.1801,0.1772,0.1768,0.1792,0.1771,0.175,0.1785,0.1745,0.1749,0.18,0.1811,0.182,0.1847,0.1706,0,0,0,0,0,0.1874,0.187,0.1842,0.1847,0.1843,0.1827,0.1828,0.182,0.1814,0.1815,0.1803,0.1798,0.1799,0.1802,0.1791,0.1806,0.1824,0.1826,0.1835,0.1843,0.1864,0.1939,0.1958,0.1759,0.1759,0.1759,0,0,0.1881,0.1876,0.1867,0.1855,0.1848,0.1845,0.1829,0.1838,0.1847,0.1812,0.1831,0.1826,0.181,0.1828,0.1838,0.1819,0.1906,0.1848,0.1855,0.1872,0.1946,0.1965,0.1983,0.1762,0.1761,0.1761,0,0,0.1901,0.1896,0.1891,0.1888,0.189,0.1883,0.1894,0.1878,0.1885,0.1896,0.1884,0.1908,0.1893,0.1899,0.1897,0.1954,0.1951,0.1953,0.2022,0.2095,0.2112,0.2128,0.2163,0.2181,0.196,0.196,0.196,0,0.1912,0.1907,0.1895,0.1896,0.1899,0.1906,0.1903,0.1912,0.1909,0.1927,0.1916,0.1943,0.1928,0.1971,0.1996,0.1976,0.2011,0.1976,0.2109,0.2124,0.2139,0.2172,0.2191,0.1964,0.1964,0.1963,0.1963,0,0.1903,0.1922,0.1931,0.1929,0.1928,0.1943,0.194,0.1966,0.1981,0.1988,0.2038,0.2032,0.2053,0.2057,0.2042,0.2139,0.2128,0.211,0.2081,0.2164,0.2192,0.2211,0.197,0.1969,0.1968,0.1967,0,0,0.1896,0.1913,0.1931,0.1932,0.1949,0.1943,0.1983,0.2012,0.2053,0.2074,0.2123,0.215,0.2168,0.2171,0.2168,0.2238,0.236,0.2232,0.2234,0.2269,0.2518,0.2361,0.2365,0.238,0.2384,0.2387,0.2491,0,0.1907,0.1907,0.1927,0.1954,0.1941,0.1975,0.2021,0.2051,0.208,0.2134,0.2172,0.222,0.2205,0.2234,0.2301,0.2357,0.2416,0.2333,0.2431,0.2434,0.2287,0.2384,0.2162,0.2224,0.2509,0.2512,0.2514,0,0.1895,0.1902,0.1909,0.1957,0.1962,0.1994,0.2055,0.2101,0.2187,0.2214,0.2275,0.2298,0.2407,0.2374,0.2528,0.2485,0.2513,0.2546,0.255,0.2394,0.2312,0.2191,0.2247,0.2545,0.2542,0.254,0.2538,0,0.1871,0.1903,0.1913,0.1919,0.1968,0.2007,0.2061,0.2132,0.2181,0.2286,0.2326,0.2431,0.2512,0.2585,0.264,0.2614,0.2792,0.2749,0.2625,0.2613,0.2436,0.24,0.2851,0.2851,0.285,0.285,0.285,0,0.187,0.1893,0.1907,0.1924,0.1975,0.2001,0.2085,0.2159,0.2243,0.232,0.2385,0.245,0.2584,0.2671,0.2694,0.2721,0.2836,0.2663,0.2645,0.245,0.2416,0.2698,0.2679,0.2854,0.2853,0.2852,0.2852,0,0.1854,0.1874,0.1902,0.1952,0.1973,0.2017,0.2109,0.2151,0.2258,0.2354,0.2402,0.253,0.2653,0.2716,0.2852,0.2789,0.2822,0.2786,0.2525,0.2473,0.2578,0.2562,0.2677,0.2673,0.2669,0.2666,0.2664,0,0.1842,0.1837,0.1913,0.1938,0.1978,0.2031,0.2074,0.2168,0.2201,0.2387,0.2422,0.2577,0.2608,0.2712,0.2677,0.2666,0.276,0.244,0.2328,0.2597,0.2569,0.2558,0.2547,0.2132,0.2125,0.2119,0.2115,0,0.1802,0.1847,0.1871,0.1943,0.1987,0.2028,0.2088,0.2107,0.2237,0.2302,0.2411,0.2456,0.2512,0.2399,0.2373,0.2339,0.242,0.2321,0.2731,0.218,0.2083,0.2054,0.2062,0.2066,0.2071,0.2075,0.2077,0.2079,0.1781,0.1801,0.186,0.1927,0.1983,0.204,0.2048,0.2066,0.2134,0.2158,0.2275,0.2224,0.2218,0.2029,0.1965,0.1928,0.2093,0.1996,0.2014,0.2038,0.1927,0.1825,0.1739,0.1742,0.1745,0.1747,0.1749,0,0.1742,0.1787,0.1826,0.1917,0.1954,0.2028,0.2056,0.1999,0.2011,0.197,0.1962,0.1742,0.1618,0.1633,0.1471,0.1437,0.1444,0.1394,0.1398,0.1447,0.149,0.1352,0.1012,0.101,0.1008,0.1006,0,0,0.1731,0.1761,0.1791,0.1863,0.1929,0.1956,0.1967,0.1887,0.1813,0.1611,0.1495,0.1478,0.1544,0.1243,0.1203,0.1085,0.1262,0.1037,0.1628,0.1681,0.1722,0.1836,0.1677,0,0,0,0,0]},{"header":{"parameterUnit":"m.s-1","parameterCategory":2,"la1":30.2991,"la2":30.254,"lo1":-89.0895,"lo2":-89.0444,"dy":0.0017,"dx":0.0017,"nx":28,"ny":28,"refTime":"2025-07-25T09:00:00:Z","depth":"2","parameterNumber":3,"parameterNumberName":"V-component_of_CURRENTS"},"data":[0,0,0,0,0,0,0,0,0,0,0,0,0,0,0,0,0,0,0,0,0,0,0,0,0,0,0,0,0,0,0,0,0,0,0,0,0,0,0,0,0,0,0,0,0,0,0,0,0,0,0,0,0,0,0,0,0,0,0.0088,0.0088,0,0.0086,0.0086,0.0086,0.0089,0.0089,0.0089,0.0089,0.009,0.009,0.009,0,0,0,0,0,0,0,0,0,0,0,0,0,0.0059,0.0059,0.0088,0.0088,0.0088,0.0086,0.0086,0.0086,0.0089,0.0089,0.0089,0.009,0.009,0.009,0.009,0,0,0,0,0,0,0,0,0,0,0,0,0,0.0065,0.006,0.0088,0.009,0.009,0.0086,0.0086,0.0086,0.0089,0.0089,0.0089,0.009,0.009,0.009,0.009,0.0085,0,0,0.0089,0.0089,0,0,0,0,0,0,0,0,0.0065,0.0067,0.0089,0.009,0.009,0.0089,0.0076,0.0086,0.0089,0.0089,0.0089,0.009,0.009,0.009,0.0088,0.0085,0.0085,0.0089,0.0089,0.0089,0.0089,0,0,0,0,0,0,0,0.0065,0.0066,0.0087,0.0089,0.009,0.0078,0.008,0.0078,0.0088,0.0089,0.0089,0.009,0.009,0.0088,0.0088,0.0085,0.0089,0.0089,0.0089,0.0089,0.0076,0.0075,0,0,0,0,0,0,0.0067,0.0066,0.0087,0.0087,0.0078,0.0079,0.008,0.0088,0.0088,0.0088,0.0089,0.009,0.0089,0.0088,0.0088,0.0094,0.0089,0.0089,0.0089,0.0076,0.0075,0.0075,0,0,0,0,0,0,0.0067,0.007,0.0087,0.0076,0.0078,0.008,0.0088,0.0088,0.0089,0.0088,0.0089,0.009,0.0089,0.0089,0.0084,0.0094,0.0089,0.0089,0.0076,0.0076,0.0075,0.0099,0,0,0,0,0,0,0.0066,0.007,0.007,0.0077,0.0079,0.0089,0.0088,0.0088,0.0089,0.0089,0.0089,0.0089,0.0089,0.0084,0.0083,0.0094,0.0088,0.0076,0.0076,0.0075,0.0098,0.0099,0.01,0,0,0,0,0,0.0065,0.007,0.0071,0.0073,0.0082,0.0089,0.0089,0.009,0.0089,0.0091,0.0085,0.0089,0.0081,0.0083,0.0083,0.0093,0.0077,0.0076,0.0075,0.0098,0.0099,0.01,0,0,0,0,0,0,0.0057,0.0071,0.0072,0.008,0.0085,0.009,0.0089,0.009,0.0087,0.0087,0.0085,0.0085,0.0083,0.008,0.0083,0.0086,0.008,0.0079,0.0097,0.0098,0.0099,0.0113,0.0088,0,0,0,0,0,0.0056,0.0062,0.0073,0.0077,0.0082,0.0085,0.0085,0.0089,0.0089,0.0089,0.0088,0.0084,0.008,0.0083,0.0076,0.008,0.0088,0.0085,0.0086,0.0086,0.0097,0.0122,0.0127,0.0073,0.0073,0.0073,0,0,0.005,0.006,0.0061,0.0075,0.0078,0.009,0.0086,0.0092,0.0099,0.0089,0.0093,0.0084,0.0078,0.008,0.008,0.0082,0.0101,0.0086,0.0087,0.0097,0.0122,0.0128,0.0133,0.0073,0.0073,0.0073,0,0,0.0053,0.0056,0.0067,0.0074,0.0084,0.0088,0.0092,0.0099,0.0101,0.0102,0.0095,0.0094,0.0087,0.0092,0.0091,0.0092,0.0101,0.0086,0.0111,0.0135,0.0141,0.0146,0.0149,0.0154,0.0093,0.0093,0.0093,0,0.0047,0.0066,0.0069,0.0084,0.0091,0.0091,0.0106,0.0107,0.0111,0.0118,0.0106,0.0107,0.0096,0.0113,0.0107,0.0098,0.0105,0.011,0.0139,0.0144,0.0149,0.0151,0.0156,0.0094,0.0094,0.0094,0.0094,0,0.0062,0.0076,0.0083,0.0104,0.011,0.0121,0.0129,0.0135,0.0133,0.0138,0.0148,0.0135,0.0143,0.0133,0.0118,0.0145,0.0136,0.0135,0.0142,0.0156,0.0156,0.0162,0.0095,0.0095,0.0095,0.0094,0,0,0.0062,0.009,0.0094,0.0108,0.0124,0.0133,0.0146,0.0165,0.0185,0.0179,0.0207,0.0188,0.0189,0.0188,0.0176,0.0189,0.0212,0.0175,0.0176,0.0188,0.0254,0.0226,0.0229,0.022,0.0222,0.0223,0.0237,0,0.0077,0.0111,0.0119,0.0145,0.0164,0.0169,0.0183,0.0197,0.0207,0.0231,0.0229,0.0245,0.0209,0.0218,0.0226,0.023,0.0228,0.0207,0.0231,0.0231,0.0214,0.0235,0.0251,0.0264,0.0242,0.0243,0.0244,0,0.01,0.012,0.0151,0.0177,0.0185,0.0196,0.0228,0.0241,0.0272,0.028,0.0302,0.0307,0.0333,0.0293,0.0315,0.0306,0.0275,0.0264,0.0265,0.0238,0.0213,0.0248,0.0274,0.0252,0.0252,0.0251,0.025,0,0.0112,0.0145,0.0169,0.0178,0.0205,0.0217,0.0229,0.0258,0.0283,0.0322,0.0359,0.0378,0.0419,0.0393,0.0375,0.0351,0.0392,0.0361,0.0297,0.0294,0.0312,0.0309,0.0352,0.0352,0.0352,0.0352,0.0352,0,0.0134,0.0154,0.0176,0.0189,0.0212,0.0229,0.0261,0.0277,0.0324,0.0385,0.0389,0.0469,0.0451,0.0476,0.0414,0.039,0.0429,0.0309,0.0304,0.0316,0.0313,0.0308,0.0303,0.0352,0.0352,0.0352,0.0352,0,0.0147,0.0163,0.0189,0.0214,0.0219,0.0235,0.0272,0.0305,0.0351,0.0438,0.0463,0.0559,0.0611,0.0561,0.0551,0.0467,0.0422,0.0386,0.0389,0.0383,0.0287,0.0283,0.0322,0.0321,0.0321,0.032,0.032,0,0.0159,0.0175,0.0197,0.0204,0.0212,0.0237,0.0259,0.0303,0.036,0.0517,0.0578,0.0668,0.0758,0.0722,0.0601,0.0483,0.0448,0.0385,0.0328,0.0297,0.0289,0.0285,0.0281,0.0357,0.0357,0.0357,0.0356,0,0.0174,0.0179,0.0195,0.021,0.0227,0.0259,0.031,0.0371,0.0469,0.06,0.0805,0.0899,0.0866,0.0812,0.062,0.053,0.0403,0.0376,0.0386,0.0351,0.0329,0.032,0.0316,0.0356,0.0356,0.0356,0.0356,0.0356,0.0178,0.0185,0.0203,0.0219,0.0241,0.0308,0.0372,0.0493,0.0655,0.0875,0.0946,0.1078,0.0955,0.0744,0.0595,0.0408,0.041,0.0321,0.0322,0.0324,0.0315,0.0292,0.0309,0.0309,0.0309,0.0309,0.0308,0,0.0184,0.0196,0.0211,0.0251,0.0301,0.0301,0.0425,0.0553,0.0811,0.0959,0.1142,0.1036,0.0949,0.0773,0.0503,0.034,0.0326,0.028,0.0303,0.0305,0.0307,0.0297,0.0286,0.0286,0.0285,0.0285,0,0,0.0189,0.0205,0.0219,0.0302,0.0338,0.0433,0.0522,0.0751,0.0895,0.1116,0.117,0.1191,0.0984,0.0772,0.058,0.0435,0.0397,0.0397,0.0434,0.0488,0.0491,0.0354,0.0344,0,0,0,0,0]}],[{"header":{"parameterUnit":"m.s-1","parameterCategory":2,"la1":30.2991,"la2":30.254,"lo1":-89.0895,"lo2":-89.0444,"dy":0.0017,"dx":0.0017,"nx":28,"ny":28,"refTime":"2025-07-25T09:00:00:Z","depth":"4","parameterNumber":2,"parameterNumberName":"U-component_of_CURRENTS"},"data":[0,0,0,0,0,0,0,0,0,0,0,0,0,0,0,0,0,0,0,0,0,0,0,0,0,0,0,0,0,0,0,0,0,0,0,0,0,0,0,0,0,0,0,0,0,0,0,0,0,0,0,0,0,0,0,0,0,0,0.0818,0.0818,0,0.0837,0.0837,0.0837,0.0865,0.0866,0.0867,0.0867,0.0962,0.0964,0.0965,0,0,0,0,0,0,0,0,0,0,0,0,0,0.0807,0.0806,0.0818,0.0818,0.0818,0.0837,0.0837,0.0837,0.0865,0.0866,0.0867,0.0867,0.0961,0.0963,0.0966,0,0,0,0,0,0,0,0,0,0,0,0,0,0.0816,0.0806,0.0818,0.0836,0.0838,0.0837,0.0837,0.0837,0.0865,0.0866,0.0867,0.0868,0.096,0.0963,0.0966,0.0966,0,0,0.0975,0.0976,0,0,0,0,0,0,0,0,0.0815,0.0816,0.0833,0.0834,0.0837,0.0851,0.0868,0.0884,0.0865,0.0853,0.0867,0.0868,0.0932,0.0937,0.0936,0.097,0.0974,0.0975,0.0977,0.0978,0.0979,0,0,0,0,0,0,0,0.0815,0.0815,0.0824,0.0833,0.0835,0.0843,0.0845,0.087,0.0888,0.0854,0.0857,0.086,0.0933,0.0933,0.0938,0.0976,0.0975,0.0978,0.0979,0.0981,0.1081,0.1081,0,0,0,0,0,0,0.0814,0.0815,0.0824,0.0825,0.0829,0.0842,0.0845,0.0844,0.0886,0.0893,0.086,0.0862,0.0927,0.0935,0.0942,0.1011,0.0978,0.0981,0.0983,0.108,0.1081,0.1082,0,0,0,0,0,0,0.0813,0.0814,0.0823,0.0821,0.0823,0.0842,0.0841,0.0844,0.0869,0.0889,0.0898,0.0884,0.0928,0.0938,0.098,0.1013,0.0982,0.0985,0.1079,0.108,0.1081,0.1107,0,0,0,0,0,0,0.0813,0.0813,0.0822,0.0821,0.0823,0.0836,0.084,0.0844,0.0868,0.0872,0.0912,0.092,0.093,0.0975,0.0983,0.1016,0.0987,0.1077,0.1079,0.1081,0.1105,0.1109,0.1113,0,0,0,0,0,0.0812,0.0815,0.0822,0.0824,0.0831,0.0837,0.0839,0.0854,0.0869,0.088,0.0907,0.092,0.0992,0.0978,0.0987,0.1022,0.1077,0.1079,0.1081,0.1103,0.1108,0.1112,0,0,0,0,0,0,0.082,0.0819,0.0826,0.0831,0.0842,0.0843,0.0859,0.0867,0.0895,0.0912,0.0929,0.0938,0.0986,0.0998,0.0983,0.1055,0.1038,0.1042,0.1052,0.1057,0.1061,0.1067,0.099,0,0,0,0,0,0.0824,0.0823,0.083,0.0836,0.0847,0.0858,0.0868,0.0879,0.0898,0.0912,0.0938,0.0969,0.0995,0.1022,0.1043,0.1085,0.11,0.1114,0.1118,0.1121,0.1131,0.118,0.1189,0.1088,0.1088,0.1088,0,0,0.083,0.0828,0.083,0.0837,0.0851,0.0863,0.0867,0.0891,0.0903,0.0919,0.0958,0.0983,0.1007,0.1048,0.1072,0.1069,0.1154,0.1123,0.1126,0.1135,0.1183,0.1193,0.1202,0.109,0.109,0.1089,0,0,0.0829,0.0844,0.0843,0.0855,0.0877,0.0884,0.0897,0.0916,0.0934,0.0968,0.0982,0.1026,0.1068,0.109,0.1106,0.1146,0.1167,0.116,0.1196,0.1242,0.1251,0.1259,0.1278,0.1287,0.117,0.117,0.117,0,0.0839,0.0835,0.0847,0.0854,0.0866,0.0896,0.0907,0.0926,0.0956,0.0977,0.099,0.1062,0.1087,0.1134,0.1152,0.1156,0.1179,0.1176,0.1248,0.1256,0.1264,0.1281,0.1291,0.1171,0.1171,0.1171,0.1171,0,0.0828,0.0843,0.085,0.0864,0.0879,0.0898,0.0924,0.0953,0.0986,0.1009,0.1071,0.1104,0.1151,0.1169,0.1178,0.1247,0.1243,0.1241,0.1236,0.1276,0.1291,0.1301,0.1173,0.1173,0.1173,0.1172,0,0,0.0811,0.0834,0.0843,0.0846,0.0889,0.0891,0.0932,0.0967,0.0994,0.1052,0.1093,0.1156,0.1195,0.1215,0.1239,0.129,0.1362,0.1301,0.1303,0.1319,0.1457,0.1332,0.1331,0.1382,0.1384,0.1386,0.144,0,0.0805,0.0805,0.0826,0.0842,0.0848,0.0893,0.092,0.0962,0.101,0.1061,0.1127,0.118,0.1206,0.1241,0.1299,0.1349,0.1393,0.1346,0.1417,0.1419,0.1303,0.134,0.1393,0.1448,0.145,0.1452,0.1453,0,0.0789,0.0788,0.0793,0.0819,0.0829,0.085,0.0898,0.0927,0.1014,0.1063,0.1146,0.1195,0.1291,0.1298,0.142,0.1395,0.1434,0.1466,0.1469,0.1353,0.1313,0.1404,0.1471,0.147,0.1469,0.1467,0.1466,0,0.0744,0.0769,0.0764,0.0773,0.0808,0.083,0.0863,0.0936,0.0968,0.1076,0.1121,0.1234,0.1304,0.138,0.1453,0.1456,0.1564,0.1566,0.1483,0.1474,0.1559,0.155,0.1642,0.1642,0.1642,0.1642,0.1642,0,0.0716,0.0721,0.0744,0.0739,0.074,0.0794,0.0823,0.0876,0.0969,0.1013,0.1124,0.1176,0.1338,0.1409,0.1464,0.1496,0.1574,0.1494,0.1485,0.1565,0.1556,0.1565,0.1555,0.1644,0.1644,0.1643,0.1643,0,0.0671,0.0691,0.0669,0.0696,0.0715,0.0711,0.0786,0.0807,0.0915,0.0977,0.1019,0.1172,0.128,0.1381,0.151,0.1497,0.1537,0.152,0.1582,0.1574,0.1416,0.1407,0.1452,0.1448,0.1445,0.1442,0.144,0,0.0642,0.0628,0.0617,0.0588,0.0604,0.0627,0.0649,0.0769,0.0805,0.0951,0.0972,0.1117,0.1206,0.1289,0.1404,0.148,0.1472,0.147,0.1466,0.1413,0.1401,0.1397,0.1392,0.1434,0.1434,0.1433,0.1432,0,0.0566,0.0562,0.0531,0.0478,0.0478,0.0481,0.0537,0.0572,0.0712,0.0817,0.0921,0.1004,0.1117,0.124,0.13,0.1348,0.1463,0.1437,0.1444,0.1441,0.1392,0.1383,0.1382,0.1421,0.1422,0.1423,0.1424,0,0.0498,0.0439,0.0389,0.034,0.0332,0.033,0.0386,0.0463,0.054,0.0745,0.0776,0.094,0.1096,0.1168,0.1214,0.1259,0.1269,0.124,0.1258,0.1272,0.119,0.1101,0.1038,0,0,0,0,0,0.0418,0.033,0.0257,0.0194,0.0194,0.0211,0.0296,0.0374,0.0545,0.0593,0.0696,0.0797,0.0926,0.1014,0.1037,0.1126,0.125,0.1142,0.1218,0.1358,0.1371,0.1293,0,0,0,0,0,0,0.0352,0.0265,0.0208,0.0096,0.006,0.0072,0.0138,0.0259,0.0314,0.0497,0.0585,0.0719,0.0865,0.0905,0.101,0.1036,0.1062,0.1254,0.1252,0.1351,0.1363,0.1373,0.1298,0,0,0,0,0]},{"header":{"parameterUnit":"m.s-1","parameterCategory":2,"la1":30.2991,"la2":30.254,"lo1":-89.0895,"lo2":-89.0444,"dy":0.0017,"dx":0.0017,"nx":28,"ny":28,"refTime":"2025-07-25T09:00:00:Z","depth":"4","parameterNumber":3,"parameterNumberName":"V-component_of_CURRENTS"},"data":[0,0,0,0,0,0,0,0,0,0,0,0,0,0,0,0,0,0,0,0,0,0,0,0,0,0,0,0,0,0,0,0,0,0,0,0,0,0,0,0,0,0,0,0,0,0,0,0,0,0,0,0,0,0,0,0,0,0,0.0108,0.0107,0,0.0105,0.0105,0.0105,0.0109,0.0109,0.0109,0.0109,0.0102,0.0102,0.0102,0,0,0,0,0,0,0,0,0,0,0,0,0,0.0089,0.009,0.0108,0.0107,0.0107,0.0105,0.0105,0.0105,0.0109,0.0109,0.0109,0.0109,0.0102,0.0102,0.0102,0,0,0,0,0,0,0,0,0,0,0,0,0,0.0094,0.009,0.0108,0.0109,0.0109,0.0105,0.0105,0.0105,0.0109,0.0109,0.0109,0.011,0.0103,0.0102,0.0102,0.0096,0,0,0.01,0.01,0,0,0,0,0,0,0,0,0.0093,0.0094,0.0109,0.0109,0.0109,0.0107,0.0096,0.0102,0.0109,0.011,0.0109,0.011,0.0103,0.0103,0.0103,0.0096,0.0095,0.01,0.01,0.01,0.01,0,0,0,0,0,0,0,0.0093,0.0094,0.0107,0.0109,0.0109,0.01,0.0101,0.0097,0.0106,0.011,0.011,0.0109,0.0103,0.0103,0.0102,0.0095,0.01,0.01,0.01,0.01,0.0093,0.0093,0,0,0,0,0,0,0.0094,0.0094,0.0107,0.0107,0.0101,0.01,0.0102,0.0108,0.0106,0.0106,0.0108,0.0109,0.0104,0.0103,0.0102,0.0107,0.01,0.01,0.0099,0.0093,0.0093,0.0093,0,0,0,0,0,0,0.0093,0.0095,0.0107,0.0099,0.01,0.0101,0.0108,0.0108,0.0109,0.0105,0.0105,0.011,0.0104,0.0103,0.0099,0.0106,0.0099,0.0099,0.0092,0.0093,0.0093,0.011,0,0,0,0,0,0,0.0093,0.0095,0.0096,0.01,0.0101,0.0108,0.0107,0.0108,0.0108,0.0108,0.0106,0.0105,0.0104,0.01,0.0099,0.0106,0.0099,0.0092,0.0093,0.0093,0.0109,0.011,0.0111,0,0,0,0,0,0.0093,0.0098,0.0097,0.0098,0.0104,0.0108,0.0108,0.0109,0.0108,0.011,0.0107,0.0106,0.01,0.0099,0.0098,0.0105,0.0092,0.0092,0.0093,0.0108,0.011,0.0111,0,0,0,0,0,0,0.009,0.0098,0.0098,0.0105,0.0106,0.0109,0.0108,0.0109,0.0108,0.0108,0.0104,0.0103,0.0104,0.01,0.0099,0.0103,0.0097,0.0097,0.0109,0.0111,0.0112,0.0116,0.0098,0,0,0,0,0,0.0089,0.0095,0.01,0.0104,0.0105,0.0106,0.0106,0.0109,0.0109,0.0109,0.0106,0.0104,0.0103,0.0103,0.01,0.01,0.0089,0.0104,0.0106,0.0107,0.0108,0.0097,0.0098,0.0093,0.0093,0.0093,0,0,0.0087,0.0093,0.0095,0.0103,0.0104,0.0111,0.0107,0.0111,0.0118,0.0107,0.0112,0.0107,0.0103,0.0106,0.0106,0.0104,0.0101,0.0107,0.0108,0.0109,0.0098,0.0098,0.0098,0.0093,0.0093,0.0093,0,0,0.009,0.0093,0.01,0.0105,0.011,0.0112,0.0114,0.0118,0.012,0.0122,0.0118,0.0116,0.0113,0.0114,0.0114,0.0119,0.0107,0.0119,0.0129,0.0119,0.0119,0.0119,0.01,0.0098,0.012,0.012,0.012,0,0.0087,0.0102,0.0101,0.0112,0.0119,0.0115,0.0127,0.0128,0.013,0.0136,0.0126,0.0125,0.0119,0.0128,0.0128,0.0123,0.011,0.0125,0.012,0.012,0.012,0.0101,0.0098,0.0121,0.0121,0.0121,0.0121,0,0.01,0.0111,0.0116,0.013,0.0135,0.0145,0.0149,0.0155,0.0154,0.0155,0.0159,0.0146,0.0148,0.0144,0.0136,0.0137,0.0125,0.0123,0.0117,0.0122,0.0101,0.0098,0.0122,0.0122,0.0122,0.0122,0,0,0.01,0.0122,0.0124,0.0141,0.0149,0.0161,0.017,0.0184,0.0203,0.0188,0.0204,0.0189,0.018,0.0178,0.0167,0.0153,0.0135,0.0136,0.0135,0.0118,0.0102,0.0104,0.0101,0.0131,0.0131,0.0131,0.0086,0,0.0112,0.0143,0.0147,0.0175,0.0193,0.0197,0.0213,0.0224,0.0227,0.024,0.0219,0.0227,0.0195,0.0198,0.0176,0.015,0.013,0.0147,0.01,0.0098,0.01,0.0099,0.013,0.0084,0.0083,0.0083,0.0082,0,0.0126,0.0148,0.0181,0.0217,0.0225,0.024,0.0275,0.0292,0.0302,0.0305,0.0295,0.0277,0.0254,0.0228,0.017,0.018,0.0141,0.0113,0.0111,0.0106,0.0095,0.0079,0.0078,0.0078,0.0078,0.0079,0.0079,0,0.0139,0.0173,0.0206,0.0217,0.0253,0.0271,0.0292,0.0312,0.0346,0.0347,0.0362,0.0322,0.0317,0.0253,0.0178,0.0176,0.0111,0.0105,0.0067,0.0066,0.0071,0.0071,0.0066,0.0066,0.0066,0.0066,0.0066,0,0.0156,0.0181,0.0219,0.0238,0.0296,0.0301,0.0361,0.0376,0.0404,0.0444,0.0399,0.0407,0.0323,0.0271,0.0192,0.0118,0.0119,0.0068,0.0057,0.0078,0.008,0.0068,0.0069,0.0064,0.0065,0.0065,0.0065,0,0.0164,0.0187,0.0235,0.0281,0.0307,0.0349,0.0421,0.0467,0.0475,0.052,0.0521,0.048,0.0408,0.0313,0.0217,0.0154,0.0072,0.0046,0.0067,0.0059,0.003,0.0032,0.0005,0.0004,0.0004,0.0004,0.0004,0,0.0172,0.0196,0.0274,0.0328,0.0354,0.0421,0.0482,0.0512,0.0552,0.056,0.0579,0.0524,0.0479,0.0338,0.0234,0.0089,0.007,0.0025,0.003,0.0032,0.0025,0.0028,0.003,0.0003,0.0003,0.0003,0.0003,0,0.0189,0.0218,0.0266,0.0373,0.0447,0.0531,0.0597,0.062,0.0645,0.0659,0.0627,0.0546,0.0472,0.0348,0.0239,0.0132,0.0051,0.0022,0.0022,0.0027,0.0031,0.0024,0.0027,0.0002,0.0003,0.0003,0.0003,0,0.0211,0.0254,0.0327,0.0422,0.052,0.0595,0.0628,0.0662,0.0695,0.0675,0.0664,0.0565,0.0517,0.0371,0.0263,0.0164,0.0142,0.0106,0.0101,0.0101,0.014,0.0159,0.0163,0,0,0,0,0,0.0232,0.0288,0.0377,0.048,0.057,0.0624,0.0693,0.0711,0.0714,0.0703,0.068,0.06,0.0449,0.0384,0.0287,0.0257,0.0122,0.014,0.0077,-0.0002,-0.0001,0.0028,0,0,0,0,0,0,0.0254,0.033,0.0376,0.0499,0.0573,0.0673,0.071,0.0717,0.07,0.0684,0.0607,0.0578,0.0434,0.0506,0.0286,0.0258,0.0204,0.0076,0.0074,-0.0002,-0.0002,-0.0001,0.003,0,0,0,0,0]}]]